Regional Weather Roundup
Issued by NWS

Home | Current Version | Previous Version | Text Only | Print | Product List | Glossary On
Versions: 1 2 3 4 5 6 7 8 9 10 11 12 13 14 15 16 17 18 19 20 21 22 23 24 25 26 27 28 29 30 31 32 33 34 35 36 37 38 39 40 41 42 43 44 45 46 47 48 49 50
000
ASUS43 KDTX 251601
RWRMI
MICHIGAN HOURLY REGIONAL WEATHER ROUNDUP
NATIONAL WEATHER SERVICE DETROIT/PONTIAC MI
1100 AM EST THU DEC 25 2014

NOTE: "FAIR" INDICATES FEW OR NO CLOUDS BELOW 12,000 FEET WITH NO
SIGNIFICANT WEATHER AND/OR OBSTRUCTION TO VISIBILITY.

MIZ047>049-052>055-059>063-066>070-074>076-081>083-251700-
SOUTHEAST LOWER MICHIGAN

CITY           SKY/WX    TMP DP  RH WIND       PRES   REMARKS
ADRIAN         CLOUDY    37  33  85 W12       29.96R WCI  29
ALMA           CLOUDY    36  32  85 W8        29.87R WCI  29
ANN ARBOR      CLOUDY    38  33  82 W12       29.92R WCI  30
BAD AXE        MOSUNNY   37  32  82 W16G24    29.82R WCI  28
CARO           CLOUDY    37  31  79 W15       29.84R WCI  28
DETROIT CITY   CLOUDY    41  32  70 W12       29.91R
DETROIT        CLOUDY    40  33  76 SW15      29.93R WCI  32
FLINT          CLOUDY    39  30  70 W13       29.90R WCI  31
GROSSE ILE     CLOUDY    39  34  81 W13       29.92R WCI  32
HILLSDALE      CLOUDY    36  33  88 W14G24    29.94R WCI  27
HOWELL         CLOUDY    36  32  87 W18G24    29.90R WCI  25

CITY           SKY/WX    TMP DP  RH WIND       PRES   REMARKS
JACKSON        CLOUDY    36  30  79 W13       29.92R WCI  27
LAMBERTVILLE   CLOUDY    39  32  75 SW13G20   29.96R WCI  32
LANSING        CLOUDY    36  28  73 W18       29.91R WCI  26
LAPEER         CLOUDY    37  30  78 W14       29.87R WCI  28
MASON          CLOUDY    35  29  80 W10G16    29.91R WCI  27
MONROE         CLOUDY    39  34  81 W15G23    29.93R WCI  31
MT. CLEMENS    CLOUDY    38  38  99 W10       29.88R WCI  31
PONTIAC        CLOUDY    36  32  85 W13       29.88R WCI  27
PORT HOPE        N/A     38  30  73 W9G23     29.78R WCI  31
PORT HURON     CLOUDY    37  32  81 SW10G16   29.89R WCI  30
TRI CITIES     CLOUDY    38  29  70 W17G23    29.86R WCI  28
TROY           CLOUDY    40  33  75 SW13G21   29.92R WCI  32
SAGINAW HB     CLOUDY    36  32  87 W13G18    29.85R WCI  27
$$
MIZ043>046-050>051-056>058-064>065-071>073-077>080-251700-
SOUTHWEST LOWER MICHIGAN

CITY           SKY/WX    TMP DP  RH WIND       PRES   REMARKS
BATTLE CREEK   CLOUDY    36  28  73 W21G31    29.93R WCI  25
BENTON HARBOR  CLOUDY    35  30  82 SW13G24   29.95R WCI  26
BIG RAPIDS     CLOUDY    35  32  89 SW9G18    29.82R WCI  28
COLDWATER      CLOUDY    34  29  82 MISG      29.95R
FREMONT        CLOUDY    36  30  81 SW12      29.86R WCI  27
HOLLAND        CLOUDY    37  30  75 SW14      29.92R WCI  28
GRAND RAPIDS   CLOUDY    36  30  79 SW15      29.90R WCI  27
IONIA          CLOUDY    37  32  82 W16       29.88R WCI  27
KALAMAZOO      CLOUDY    36  28  73 SW14G23   29.95R WCI  27
LUDINGTON      CLOUDY    37  30  75 W14G21    29.85R WCI  29
MARSHALL       CLOUDY    35  29  80 W17G25    29.93R WCI  24
MOUNT PLEASANT CLOUDY    37  30  77 SW10      29.84R WCI  29
MUSKEGON       CLOUDY    37  29  72 SW17G26   29.90R WCI  27
SOUTH HAVEN    CLOUDY    37  30  77 SW15G24   29.94R WCI  27
$$
MIZ016>042-251700-
NORTHERN LOWER MICHIGAN

CITY           SKY/WX    TMP DP  RH WIND       PRES   REMARKS
ALPENA         CLOUDY    35  32  88 SW8       29.73R WCI  29
BEAVER ISLAND  CLOUDY    36  31  83 W20       29.73R WCI  25
BELLAIRE       CLOUDY    38  31  77 SW8       29.77R WCI  32
CADILLAC       CLOUDY    33  30  90 SW12      29.77R WCI  24
CHARLEVOIX     CLOUDY    37  31  81 W16G25    29.77R WCI  27
FRANKFORT      PTSUNNY   37  31  77 W13G23    29.79R WCI  29
GAYLORD        CLOUDY    33  30  88 W13       29.72R WCI  24
GRAYLING       CLOUDY    33  30  86 W9G22     29.76R WCI  26
HARBOR SPRINGS CLOUDY    36  30  80 W10G20    29.73R WCI  28
HOUGHTON LAKE  CLOUDY    34  27  75 W15G23    29.78R WCI  24
MANISTEE       CLOUDY    37  27  65 W15G21    29.82R WCI  28
OSCODA         CLOUDY    37  32  84 W14       29.76R WCI  28
PELLSTON       CLOUDY    36  30  79 W17G25    29.72R WCI  26
ROGERS CITY    CLOUDY    35  32  89 W8        29.72R WCI  29
TRAVERSE CITY  CLOUDY    38  30  73 SW12      29.77R WCI  30
$$
MIZ007>008-015-251700-
EASTERN UPPER MICHIGAN

CITY           SKY/WX    TMP DP  RH WIND       PRES   REMARKS
KINROSS        CLOUDY    34  34 100 W13G22    29.65R WCI  25
MACKINAC ISLAN CLOUDY    35  32  88 W14G23    29.69R WCI  26
NEWBERRY       MOSUNNY   33  30  89 W17G23    29.66R WCI  22
S. S. MARIE    CLOUDY    34  30  85 W12       29.63R WCI  25
MUNISING         N/A     37  28  70 VRB5      29.67R WCI  33
$$
MIZ004>006-011>014-085-251700-
CENTRAL UPPER MICHIGAN

CITY           SKY/WX    TMP DP  RH WIND       PRES   REMARKS
MANISTIQUE     CLOUDY    35  32  89 MISG      29.70R
ESCANABA       CLOUDY    34  27  75 SW12      29.70R WCI  25
MENOMINEE      CLOUDY    34  28  80 W10G17    29.75R WCI  26
SAWYER-GWINN   PTSUNNY   32  28  86 SW8       29.66R WCI  25
$$
MIZ001>003-009>011-084-251700-
WESTERN UPPER MICHIGAN

CITY           SKY/WX    TMP DP  RH WIND       PRES   REMARKS
IRON MOUNTAIN  CLOUDY    33  27  78 W12G21    29.68R WCI  24
HOUGHTON       CLOUDY    33  29  85 W10       29.61R WCI  25
COPPER HARBOR    N/A     36  31  82 VRB5      29.61R WCI  32
IRONWOOD       CLOUDY    30  28  93 SW10G16   29.63R WCI  21
$$

ABBREVIATIONS USED IN REMARKS
   TC - TEMPERATURE IN CELSIUS
  WCI - WIND CHILL INDEX
   HX - HEAT INDEX
  VSB - VISIBILITY



USA.gov is the U.S. government's official web portal to all federal, state and local government web resources and services.